Regional Weather Roundup
Issued by NWS

Home | Current Version | Previous Version | Graphics & Text | Print | Product List | Glossary On
Versions: 1 2 3 4 5 6 7 8 9 10 11 12 13 14 15 16 17 18 19 20 21 22 23 24 25 26 27 28 29 30 31 32 33 34 35 36 37 38 39 40 41 42 43 44 45 46 47 48 49 50
000
ASUS45 KBOU 281207
RWRCO

WEATHER ROUNDUP FOR COLORADO
NATIONAL WEATHER SERVICE DENVER/BOULDER CO
600 AM MDT THU AUG 28 2014

NOTE: "FAIR" INDICATES FEW OR NO CLOUDS BELOW 12000 FEET WITH NO
SIGNIFICANT WEATHER AND/OR OBSTRUCTIONS TO VISIBILITY.

COZ001>005-013-030-031-281300-
...NORTHWEST COLORADO...

CITY           SKY/WX    TMP DP  RH WIND       PRES   REMARKS
CRAIG          CLOUDY    52  49  89 SW7       30.28S
HAYDEN         CLOUDY    50  46  87 NW7       30.28S
MEEKER         CLOUDY    52  49  89 SW5       30.29S
MOUNT WERNER   NOT AVBL
STEAMBOAT SPGS CLOUDY    49  48  96 CALM      30.29S
WALDEN         MOCLDY    46  43  87 CALM      30.31S
$$

COZ006>008-011-281300-
...WEST CENTRAL VALLEYS...

CITY           SKY/WX    TMP DP  RH WIND       PRES   REMARKS
GRAND JUNCTION CLOUDY    57  55  93 E5        30.24R
MONTROSE       CLOUDY    54  50  86 SE8       30.30R
EAGLE          CLOUDY    52  50  93 CALM      30.30S
RIFLE          LGT RAIN  54  53  97 CALM      30.26S
DELTA          RAIN      57  53  87 CALM      30.27R
NUCLA          NOT AVBL
$$

COZ017>023-064>068-281300-
...SOUTHWEST COLORADO...

CITY           SKY/WX    TMP DP  RH WIND       PRES   REMARKS
DURANGO        PTCLDY    44  42  93 NE3       30.29F
CORTEZ         PTCLDY    45  44  97 E5        30.29S
PAGOSA SPRINGS MOCLDY    43  41  91 CALM      30.34S
TELLURIDE      CLOUDY    45  45 100 CALM      30.42R
WOLF CREEK PAS MOCLDY    32  32 100 SW16      30.50S WCI  21
$$

COZ009-010-012-014-032>034-037-058>063-281300-
...CENTRAL COLORADO...

CITY           SKY/WX    TMP DP  RH WIND       PRES   REMARKS
ASPEN          LGT RAIN  48  46  93 N3        30.33R
BUENA VISTA    MOCLDY    45  38  77 S3        30.30R
COPPER MTN     SNOW      37  34  87 W21       30.48S VSB<1/4
BERTHOUD PASS  FOG       32  30  93 NW18G24   30.49R VSB<1/4 WCI  20
COTTONWOOD PAS CLOUDY    46  37  71 N5        30.38R
GUNNISON       CLOUDY    48  43  81 W5        30.34F
KREMMLING      CLOUDY    50  43  76 SW3       30.32R
LEADVILLE      MOCLDY    39  38  96 N6        30.38S
MONARCH PASS   FOG       34  32  93 W18       30.57F VSB<1/4 WCI  23
SALIDA         MOCLDY    52  40  64 W8        30.35R
SUNLIGHT       FOG       41  41 100 CALM      30.46S VSB<1/4
WILKERSON PASS NOT AVBL
$$

COZ069>075-281300-
...SAN LUIS VALLEY/SANGRE DE CRISTO MOUNTAINS...

CITY           SKY/WX    TMP DP  RH WIND       PRES   REMARKS
ALAMOSA        MOCLDY    42  38  85 CALM      30.30F
LA VETA PASS   NOT AVBL
SAGUACHE       DRIZZLE   46  43  87 NW6       30.33S
$$

COZ035-036-038>040-281300-
...NORTHERN COLORADO FRONT RANGE...

CITY           SKY/WX    TMP DP  RH WIND       PRES   REMARKS
DENVER INTL AP PTCLDY    54  50  86 S12       30.13S
DMNS CITY PARK   N/A     53  47  81 S9        30.13S
AURORA         PTCLDY    52  50  93 S9        30.15S
FRONT RANGE AP PTCLDY    54  50  87 S6        30.14S
ERIE MUNI ARPT PTCLDY    53  50  89 CALM      30.11S
BOULDER MUN AP PTCLDY    55  46  71 S3        30.11S
CENTENNIAL     PTCLDY    50  46  86 S5        30.15F
BROOMFIELD     PTCLDY    54  48  82 CALM      30.14S
FORT COLLINS   PTCLDY    54  50  87 CALM      30.12F
LONGMONT       PTCLDY    53  51  91 CALM      30.13R
$$

COZ041-046-047-076>085-087-088-281300-
...PIKES PEAK/PALMER DIVIDE AND SOUTHERN FOOTHILLS...

CITY           SKY/WX    TMP DP  RH WIND       PRES   REMARKS
COLO. SPRINGS  MOCLDY    53  47  79 NW5       30.19F
A. F. ACADEMY  MOCLDY    46  43  92 N6        30.20F
ELLICOTT       CLEAR     48  45  89 CALM      30.17S
FALCON         CLEAR     51  45  80 NW6       30.21F
FORT CARSON    PTCLDY    50  45  81 NW9       30.17S
LIMON          CLEAR     51  50  96 W10       30.13R
MONUMENT HILL  CLEAR     43  41  93 SW7       30.21S
TRINIDAD       CLEAR     49  42  77 W9        30.18S
$$

COZ042>045-048>051-090-091-281300-
...NORTHEAST COLORADO...

CITY           SKY/WX    TMP DP  RH WIND       PRES   REMARKS
GREELEY ARPT   CLEAR     50  43  76 CALM      30.11S
AKRON          CLEAR     55  53  93 W9        30.07S
BURLINGTON     CLOUDY    59  57  93 W8        30.05R
WRAY             N/A    N/A N/A N/A W7        30.02F
STERLING       CLEAR     59  55  88 NW7       30.03S
HOLYOKE        PTCLDY    61  59  94 W7        30.01S
FORT MORGAN    CLEAR     54  49  83 W9        30.09R
$$

COZ086-089-092>099-281300-
...SOUTHEAST COLORADO...

CITY           SKY/WX    TMP DP  RH WIND       PRES   REMARKS
PUEBLO         CLEAR     54  48  80 W10       30.12S
LA JUNTA       CLEAR     56  53  90 W9        30.09S
LAMAR          PTCLDY    60  58  92 W7        30.04S
SPRINGFIELD      N/A     58  55  90 NW12      30.07R
$$



USA.gov is the U.S. government's official web portal to all federal, state and local government web resources and services.